�N����,����,����,����,����,�C��,���x,�~����,�S�V����,�ő�u�ԕ���,,,,,
,,,,,,,,,����,����,����,�N��,,
yyyy/mm/dd,hh:mm:ss,(16),16����,m/s,��,%,mm,KW/�u,(16),16����,m/s,Time,,
2020/12/1,1:00:00,12,��,2.3,-8.1,83.9,0,0,12,��,4.3,44,,
2020/12/1,2:00:00,6,�쓌,0.5,-8,88,0,0,13,���k��,4.7,5,,
2020/12/1,3:00:00,15,�k�k��,1.2,-9.7,93.3,0,0,12,��,3,1,,
2020/12/1,4:00:00,12,��,3,-10.1,92,0,0,12,��,4,50,,
2020/12/1,5:00:00,13,���k��,2.1,-9.5,88.1,0,0,12,��,3.9,33,,
2020/12/1,6:00:00,13,���k��,2.4,-8.8,92.1,0,0,13,���k��,3.6,6,,
2020/12/1,7:00:00,13,���k��,2.7,-9.7,90.5,0,0.01,13,���k��,3.5,1,,
2020/12/1,8:00:00,3,���k��,1,-1.2,74.8,0,0.16,13,���k��,3.5,2,,
2020/12/1,9:00:00,3,���k��,0.7,2.4,54.5,0,0.32,7,��쓌,2.3,39,,
2020/12/1,10:00:00,14,�k��,1,2.4,35.1,0,0.45,16,�k,2.4,35,,
2020/12/1,11:00:00,14,�k��,3.4,3.5,29.4,0,0.53,12,��,7.1,56,,
2020/12/1,12:00:00,14,�k��,3.3,4,26.7,0,0.57,13,���k��,12.1,3,,
2020/12/1,13:00:00,12,��,6.3,3.6,30.9,0,0.5,12,��,10.1,56,,
2020/12/1,14:00:00,13,���k��,4.3,3.3,33.2,0,0.38,12,��,9.7,1,,
2020/12/1,15:00:00,12,��,5.1,1.3,44.1,0,0.23,13,���k��,8.1,22,,
2020/12/1,16:00:00,14,�k��,2.1,-0.8,56.6,0,0.02,12,��,7.1,13,,
2020/12/1,17:00:00,14,�k��,1.7,-3.1,66.5,0,0,13,���k��,3.3,6,,
2020/12/1,18:00:00,1,�k�k��,1,-4.7,71.7,0,0,14,�k��,3.1,8,,
2020/12/1,19:00:00,13,���k��,1.1,-8.5,82.3,0,0,12,��,1.9,35,,
2020/12/1,20:00:00,12,��,0.9,-8.6,87.6,0,0,13,���k��,1.9,32,,
2020/12/1,21:00:00,13,���k��,1.4,-7.9,91.6,0,0,14,�k��,2.5,41,,
2020/12/1,22:00:00,14,�k��,1.4,-7.6,92.8,0,0,13,���k��,2.6,42,,
2020/12/1,23:00:00,14,�k��,0.9,-8.8,90,0,0,13,���k��,3.8,13,,
2020/12/1,0:00:00,13,���k��,2,-10.4,92.2,0,0,13,���k��,3.5,43,,
2020/12/2,1:00:00,13,���k��,2.1,-10.2,94.8,0,0,13,���k��,2.9,29,,
2020/12/2,2:00:00,13,���k��,1.5,-10.2,94.5,0,0,13,���k��,2.5,6,,
2020/12/2,3:00:00,13,���k��,2.3,-10,96.2,0,0,14,�k��,2.9,58,,
2020/12/2,4:00:00,13,���k��,1.9,-10.6,95.1,0,0,13,���k��,2.7,6,,
2020/12/2,5:00:00,13,���k��,1.6,-10.8,94.9,0,0,13,���k��,3.4,12,,
2020/12/2,6:00:00,13,���k��,2.7,-10.9,92.5,0,0,12,��,4.1,19,,
2020/12/2,7:00:00,12,��,1.3,-10.2,92.1,0,0.01,12,��,3.5,6,,
2020/12/2,8:00:00,14,�k��,2.4,-6.2,86.5,0,0.15,14,�k��,3.5,45,,
2020/12/2,9:00:00,9,��쐼,0.3,-2.1,72,0,0.32,12,��,2.5,45,,
2020/12/2,10:00:00,1,�k�k��,0.7,1.9,52.3,0,0.44,6,�쓌,12.8,10,,
2020/12/2,11:00:00,15,�k�k��,1.6,3.9,35.6,0,0.52,12,��,6.6,34,,
2020/12/2,12:00:00,16,�k,2.6,4.1,32.8,0,0.53,15,�k�k��,5.2,47,,
2020/12/2,13:00:00,5,���쓌,3.4,4,40.3,0,0.48,16,�k,7.1,3,,
2020/12/2,14:00:00,4,��,2.7,3.9,43.5,0,0.37,4,��,5.6,13,,
2020/12/2,15:00:00,7,��쓌,1.3,2.8,44.2,0,0.22,4,��,3.5,0,,
2020/12/2,16:00:00,15,�k�k��,0.7,-3.6,66.4,0,0.03,8,��,2,0,,
2020/12/2,17:00:00,13,���k��,0.9,-4.7,80.5,0,0,14,�k��,1.9,45,,
2020/12/2,18:00:00,14,�k��,0.5,-4.7,69.7,0,0,13,���k��,3.9,37,,
2020/12/2,19:00:00,14,�k��,1.7,-6.9,85.8,0,0,12,��,3.2,48,,
2020/12/2,20:00:00,13,���k��,2.1,-5.5,83.2,0,0,14,�k��,3.3,22,,
2020/12/2,21:00:00,13,���k��,2.6,-6.7,84.1,0,0,13,���k��,3.5,50,,
2020/12/2,22:00:00,13,���k��,2.3,-7.2,86.6,0,0,13,���k��,3.5,7,,
2020/12/2,23:00:00,14,�k��,0.9,-8.6,87,0,0,13,���k��,3,13,,
2020/12/2,0:00:00,13,���k��,1.7,-8.3,88,0,0,13,���k��,3,59,,
2020/12/3,1:00:00,12,��,2.5,-8.6,88.7,0,0,12,��,3.4,46,,
2020/12/3,2:00:00,13,���k��,2,-9.1,90,0,0,13,���k��,3.6,20,,
2020/12/3,3:00:00,14,�k��,2.5,-8.3,88.9,0,0,13,���k��,3.8,50,,
2020/12/3,4:00:00,13,���k��,2.3,-7.9,87.7,0,0,14,�k��,3.9,21,,
2020/12/3,5:00:00,13,���k��,2.5,-7.3,86,0,0,13,���k��,3.8,58,,
2020/12/3,6:00:00,13,���k��,1.3,-7.2,83.9,0,0,13,���k��,3.9,1,,
2020/12/3,7:00:00,12,��,1.8,-7.7,84,0,0.01,15,�k�k��,2.8,9,,
2020/12/3,8:00:00,12,��,2.5,-5.5,84.2,0,0.06,12,��,3.5,56,,
2020/12/3,9:00:00,13,���k��,2.2,-1.6,72,0,0.21,8,��,5.1,59,,
2020/12/3,10:00:00,12,��,1.1,4,39.5,0,0.45,7,��쓌,4.5,0,,
2020/12/3,11:00:00,11,���쐼,3.9,5,34.1,0,0.5,10,�쐼,7.3,55,,
2020/12/3,12:00:00,12,��,4.5,5.8,34.9,0,0.5,12,��,7.6,42,,
2020/12/3,13:00:00,13,���k��,5.4,5.2,36.9,0,0.44,12,��,10.1,21,,
2020/12/3,14:00:00,12,��,4.5,5,40.4,0,0.34,13,���k��,8.6,8,,
2020/12/3,15:00:00,13,���k��,3.7,3,47,0,0.2,12,��,10,32,,
2020/12/3,16:00:00,13,���k��,4,1.4,50.9,0,0.03,12,��,7.8,43,,
2020/12/3,17:00:00,13,���k��,3,-1.7,64.7,0,0,14,�k��,5.7,14,,
2020/12/3,18:00:00,13,���k��,1.6,-2,63.6,0,0,12,��,3.7,3,,
2020/12/3,19:00:00,12,��,1.5,-6.6,85.3,0,0,12,��,2.9,36,,
2020/12/3,20:00:00,14,�k��,1.3,-6.9,82.8,0,0,15,�k�k��,3.4,25,,
2020/12/3,21:00:00,14,�k��,1.5,-7.7,90.5,0,0,13,���k��,3.1,42,,
2020/12/3,22:00:00,13,���k��,2.9,-6.9,84.6,0,0,12,��,4.4,56,,
2020/12/3,23:00:00,13,���k��,2.4,-8.4,85.4,0,0,10,�쐼,4.4,39,,
2020/12/3,0:00:00,2,�k��,2.3,-6.6,78.8,0,0,2,�k��,3.7,53,,
2020/12/4,1:00:00,15,�k�k��,0.7,-7.9,86.2,0,0,1,�k�k��,4,15,,
2020/12/4,2:00:00,12,��,2.3,-10.3,90.7,0,0,11,���쐼,2.6,53,,
2020/12/4,3:00:00,13,���k��,2.4,-9.3,90.4,0,0,14,�k��,3.3,58,,
2020/12/4,4:00:00,12,��,1.9,-11.3,90.1,0,0,12,��,3.1,26,,
2020/12/4,5:00:00,12,��,1.6,-12.3,92.3,0,0,16,�k,2.7,1,,
2020/12/4,6:00:00,14,�k��,0.6,-11.1,89.5,0,0,12,��,3.7,45,,
2020/12/4,7:00:00,13,���k��,2.2,-10.9,91.6,0,0.01,13,���k��,3.3,26,,
2020/12/4,8:00:00,13,���k��,1,-5.3,83.6,0,0.15,12,��,3.4,15,,
2020/12/4,9:00:00,13,���k��,1,-1.8,67.8,0,0.31,11,���쐼,2.6,42,,
2020/12/4,10:00:00,1,�k�k��,1,2.3,45.7,0,0.44,8,��,2.9,1,,
2020/12/4,11:00:00,16,�k,1.3,3.1,34.7,0,0.51,16,�k,6.8,15,,
2020/12/4,12:00:00,14,�k��,1.4,3.8,32,0,0.53,13,���k��,4.1,25,,
2020/12/4,13:00:00,15,�k�k��,2.6,4.1,31.4,0,0.48,14,�k��,6.5,57,,
2020/12/4,14:00:00,2,�k��,1.5,4.4,34.5,0,0.38,14,�k��,6,25,,
2020/12/4,15:00:00,14,�k��,2,3.7,34.4,0,0.23,1,�k�k��,4,2,,
2020/12/4,16:00:00,10,�쐼,1.5,0.4,46.5,0,0.06,10,�쐼,2.7,54,,
2020/12/4,17:00:00,12,��,1.7,-1.5,54.8,0,0,12,��,4.9,8,,
2020/12/4,18:00:00,13,���k��,0.6,-6.8,70.5,0,0,13,���k��,1.8,58,,
2020/12/4,19:00:00,13,���k��,1.8,-7.7,81.6,0,0,12,��,3.3,50,,
2020/12/4,20:00:00,14,�k��,1.9,-9.1,82.6,0,0,14,�k��,2.8,54,,
2020/12/4,21:00:00,12,��,1.2,-8.5,87,0,0,13,���k��,3.8,9,,
2020/12/4,22:00:00,13,���k��,1.3,-9.2,89.8,0,0,12,��,2.7,14,,
2020/12/4,23:00:00,12,��,2.5,-11,87.4,0,0,12,��,3.4,41,,
2020/12/4,0:00:00,13,���k��,1.2,-9.3,89.5,0,0,13,���k��,2.8,39,,
2020/12/5,1:00:00,13,���k��,1.8,-8.8,87.4,0,0,14,�k��,3.6,49,,
2020/12/5,2:00:00,12,��,0.8,-9,91.3,0,0,13,���k��,2.9,12,,
2020/12/5,3:00:00,12,��,2.6,-10.3,91.4,0,0,12,��,5.2,2,,
2020/12/5,4:00:00,13,���k��,3.7,-7.1,86.8,0,0,12,��,5.9,50,,
2020/12/5,5:00:00,13,���k��,2.2,-9.8,90.5,0,0,12,��,3.9,32,,
2020/12/5,6:00:00,12,��,2.4,-10,91.1,0,0,12,��,5.6,38,,
2020/12/5,7:00:00,12,��,2.7,-10,90.5,0,0.01,13,���k��,3.6,34,,
2020/12/5,8:00:00,12,��,2.2,-0.6,68.4,0,0.13,11,���쐼,8.7,25,,
2020/12/5,9:00:00,10,�쐼,2.1,4.8,56.2,0,0.3,11,���쐼,4.1,53,,
2020/12/5,10:00:00,12,��,5.3,7.1,33.8,0,0.43,11,���쐼,9.6,32,,
2020/12/5,11:00:00,12,��,4.3,8.2,30.6,0,0.5,13,���k��,11.9,38,,
2020/12/5,12:00:00,11,���쐼,6.3,8,28.4,0,0.52,12,��,10.4,8,,
2020/12/5,13:00:00,2,�k��,2.2,8.6,31.3,0,0.47,11,���쐼,11.2,18,,
2020/12/5,14:00:00,12,��,6.1,7.1,31.2,0,0.37,12,��,9.4,50,,
2020/12/5,15:00:00,12,��,6.2,5.8,36.7,0,0.22,12,��,11.1,27,,
2020/12/5,16:00:00,12,��,3.5,2.7,47.4,0,0.05,12,��,8.3,14,,
2020/12/5,17:00:00,12,��,1.2,-2.6,64,0,0,12,��,3.8,0,,
2020/12/5,18:00:00,3,���k��,0.8,-3.1,69.4,0,0,11,���쐼,2.9,0,,
2020/12/5,19:00:00,12,��,1.5,-6.5,81.6,0,0,13,���k��,2.5,55,,
2020/12/5,20:00:00,12,��,2.4,-5.4,80.4,0,0,12,��,4.6,40,,
2020/12/5,21:00:00,13,���k��,2,-7,87.2,0,0,12,��,3.8,33,,
2020/12/5,22:00:00,12,��,1.4,-6.6,89,0,0,12,��,4,27,,
2020/12/5,23:00:00,13,���k��,1.1,-8.7,88.7,0,0,12,��,3.4,24,,
2020/12/5,0:00:00,12,��,1.4,-8.6,89.2,0,0,12,��,3.1,36,,
2020/12/6,1:00:00,13,���k��,1.3,-8.4,88.8,0,0,13,���k��,2.8,20,,
2020/12/6,2:00:00,14,�k��,0.7,-5.8,86.3,0,0,14,�k��,2.8,39,,
2020/12/6,3:00:00,14,�k��,3,-6.2,90.1,0,0,12,��,4.2,38,,
2020/12/6,4:00:00,14,�k��,2.9,-5.9,85.6,0,0,13,���k��,4.7,38,,
2020/12/6,5:00:00,13,���k��,1.7,-8.2,92.6,0,0,14,�k��,3.8,1,,
2020/12/6,6:00:00,13,���k��,1.7,-7.6,91.4,0,0,12,��,3,28,,
2020/12/6,7:00:00,13,���k��,1.1,-6.2,87.4,0,0.01,13,���k��,3.9,16,,
2020/12/6,8:00:00,13,���k��,2.5,-3.9,85.1,0,0.13,13,���k��,4.1,23,,
2020/12/6,9:00:00,13,���k��,0.8,2.5,68.4,0,0.3,13,���k��,3.1,5,,
2020/12/6,10:00:00,15,�k�k��,0.7,6.6,42.4,0,0.43,15,�k�k��,2.3,39,,
2020/12/6,11:00:00,12,��,1,7.9,37.8,0,0.5,15,�k�k��,2.6,4,,
2020/12/6,12:00:00,6,�쓌,2.6,8.2,40.5,0,0.52,7,��쓌,5,22,,
2020/12/6,13:00:00,4,��,3.8,8.1,49.5,0,0.47,4,��,5.7,43,,
2020/12/6,14:00:00,2,�k��,3.4,7.8,49.7,0,0.37,2,�k��,5.3,51,,
2020/12/6,15:00:00,12,��,4.7,7.8,37.6,0,0.22,13,���k��,7,27,,
2020/12/6,16:00:00,13,���k��,1.9,4.9,48.7,0,0.03,12,��,7.2,0,,
2020/12/6,17:00:00,2,�k��,0.6,-0.2,79.3,0,0,2,�k��,3.5,25,,
2020/12/6,18:00:00,13,���k��,0.6,-4.2,74.1,0,0,12,��,3,32,,
2020/12/6,19:00:00,13,���k��,2.2,-4.5,86.7,0,0,12,��,3.7,31,,
2020/12/6,20:00:00,12,��,1.7,-5.6,87.7,0,0,12,��,3.4,16,,
2020/12/6,21:00:00,13,���k��,2.4,-5.8,91.8,0,0,12,��,3,57,,
2020/12/6,22:00:00,13,���k��,1.9,-5.6,91.1,0,0,13,���k��,3.7,19,,
2020/12/6,23:00:00,13,���k��,1.7,-4.8,90.2,0,0,13,���k��,3.6,39,,
2020/12/6,0:00:00,14,�k��,0.8,-4.5,86.5,0,0,13,���k��,4.5,35,,
2020/12/7,1:00:00,14,�k��,2.4,-4,82.8,0,0,3,���k��,7,36,,
2020/12/7,2:00:00,13,���k��,2.1,-5.3,88.5,0,0,14,�k��,3.4,11,,
2020/12/7,3:00:00,13,���k��,2.5,-6.7,89.1,0,0,13,���k��,3.8,52,,
2020/12/7,4:00:00,12,��,2.5,-5.9,92.8,0,0,13,���k��,3,52,,
2020/12/7,5:00:00,13,���k��,2.2,-6.6,93.3,0,0,12,��,3.9,48,,
2020/12/7,6:00:00,13,���k��,2,-5.8,94.3,0,0,12,��,3.2,40,,
2020/12/7,7:00:00,13,���k��,1.4,-4.2,93.2,0,0.01,12,��,5.7,36,,
2020/12/7,8:00:00,11,���쐼,0.6,-2.9,92.2,0,0.04,9,��쐼,2.2,45,,
2020/12/7,9:00:00,13,���k��,0.6,0.3,87.2,0,0.11,13,���k��,1.5,33,,
2020/12/7,10:00:00,10,�쐼,3.5,6.7,66.4,0,0.38,10,�쐼,5.7,51,,
2020/12/7,11:00:00,11,���쐼,2.8,6.9,66,0,0.39,11,���쐼,5.6,0,,
2020/12/7,12:00:00,14,�k��,3.6,8,53.7,0,0.51,15,�k�k��,7.7,59,,
2020/12/7,13:00:00,15,�k�k��,3.4,7,53.2,0,0.46,15,�k�k��,7.5,0,,
2020/12/7,14:00:00,15,�k�k��,2.5,7.4,51.4,0,0.36,14,�k��,6.7,39,,
2020/12/7,15:00:00,12,��,2.6,6.5,44.3,0,0.22,13,���k��,5.1,56,,
2020/12/7,16:00:00,14,�k��,1.8,2.7,51.8,0,0.06,13,���k��,6.2,18,,
2020/12/7,17:00:00,14,�k��,2.2,-1.4,65.6,0,0,14,�k��,4.3,14,,
2020/12/7,18:00:00,14,�k��,1.2,-1.7,77.8,0,0,14,�k��,3.2,34,,
2020/12/7,19:00:00,13,���k��,1.3,-4,81.6,0,0,13,���k��,3.7,41,,
2020/12/7,20:00:00,16,�k,0.5,-5,89.9,0,0,3,���k��,3.4,39,,
2020/12/7,21:00:00,13,���k��,1.3,-7.3,91.3,0,0,12,��,2.6,46,,
2020/12/7,22:00:00,13,���k��,1,-8,93,0,0,12,��,2.7,35,,
2020/12/7,23:00:00,12,��,1.7,-7.3,93.9,0,0,12,��,3.3,59,,
2020/12/7,0:00:00,14,�k��,2.2,-5.9,86.9,0,0,12,��,4.8,17,,
2020/12/8,1:00:00,13,���k��,2.8,-6.3,90.9,0,0,12,��,4.8,41,,
2020/12/8,2:00:00,13,���k��,1.8,-5.9,86.5,0,0,14,�k��,5.1,28,,
2020/12/8,3:00:00,13,���k��,2,-6.6,92.9,0,0,13,���k��,3.3,1,,
2020/12/8,4:00:00,12,��,2.7,-5.8,87.8,0,0,13,���k��,4.1,46,,
2020/12/8,5:00:00,14,�k��,1.4,-6.8,88.8,0,0,13,���k��,3.3,18,,
2020/12/8,6:00:00,13,���k��,2.2,-6.8,88.2,0,0,12,��,3.4,7,,
2020/12/8,7:00:00,13,���k��,1.9,-7.2,90.2,0,0.01,15,�k�k��,7.1,37,,
2020/12/8,8:00:00,13,���k��,2.4,-4.9,87.1,0,0.11,13,���k��,3.1,14,,
2020/12/8,9:00:00,14,�k��,2.1,0.3,65.9,0,0.28,13,���k��,3.6,46,,
2020/12/8,10:00:00,11,���쐼,2.4,3.5,45.9,0,0.42,10,�쐼,3.4,58,,
2020/12/8,11:00:00,11,���쐼,2.2,4,36.5,0,0.5,11,���쐼,6,45,,
2020/12/8,12:00:00,12,��,2.8,3.7,34.2,0,0.42,11,���쐼,7.1,53,,
2020/12/8,13:00:00,11,���쐼,1.3,4.6,32.8,0,0.3,11,���쐼,4.3,11,,
2020/12/8,14:00:00,13,���k��,3.6,4.4,33.2,0,0.39,12,��,7.8,48,,
2020/12/8,15:00:00,13,���k��,1.5,3.1,35.6,0,0.23,16,�k,7.5,7,,
2020/12/8,16:00:00,12,��,2.3,0.9,45.6,0,0.06,13,���k��,4.9,9,,
2020/12/8,17:00:00,16,�É�,0.1,-4.7,60.1,0,0,11,���쐼,2.8,10,,
2020/12/8,18:00:00,14,�k��,0.5,-5.6,71.5,0,0,13,���k��,6.7,57,,
2020/12/8,19:00:00,16,�k,0.6,-8.2,79,0,0,1,�k�k��,2.5,20,,
2020/12/8,20:00:00,13,���k��,3.2,-8.1,84.1,0,0,13,���k��,4,54,,
2020/12/8,21:00:00,14,�k��,1.6,-8.1,82.7,0,0,14,�k��,3.7,35,,
2020/12/8,22:00:00,14,�k��,2.1,-8.5,83.7,0,0,14,�k��,4.2,20,,
2020/12/8,23:00:00,13,���k��,3,-7.1,79.9,0,0,13,���k��,5.1,49,,
2020/12/8,0:00:00,13,���k��,3,-7.6,85.3,0,0,14,�k��,4.9,24,,
2020/12/9,1:00:00,14,�k��,2.8,-7.6,84.4,0,0,14,�k��,5.3,39,,
2020/12/9,2:00:00,14,�k��,2.5,-4.9,79.6,0,0,14,�k��,3.8,33,,
2020/12/9,3:00:00,13,���k��,3.2,-7.6,83.4,0,0,13,���k��,4.8,55,,
2020/12/9,4:00:00,12,��,1.2,-9.6,92.9,0,0,13,���k��,3.7,0,,
2020/12/9,5:00:00,13,���k��,3.1,-9.4,92.2,0,0,13,���k��,3.7,56,,
2020/12/9,6:00:00,13,���k��,2.7,-8.2,91,0,0,13,���k��,4.3,20,,
2020/12/9,7:00:00,-7.3,#N/A,91.3,0,0.01,,,,,,,,
2020/12/9,8:00:00,14,�k��,2.5,-4,74.9,0,0.12,14,�k��,4.3,10,,
2020/12/9,9:00:00,14,�k��,1.6,-1.2,67.4,0,0.29,13,���k��,3.5,10,,
2020/12/9,10:00:00,14,�k��,1.1,1.6,48.1,0,0.42,14,�k��,2.7,7,,
2020/12/9,11:00:00,7,��쓌,2.2,3.1,40.8,0,0.5,7,��쓌,3.9,54,,
2020/12/9,12:00:00,7,��쓌,2.5,2.7,43.8,0,0.52,6,�쓌,4.6,9,,
2020/12/9,13:00:00,6,�쓌,2,3.1,46.2,0,0.47,6,�쓌,3.7,33,,
2020/12/9,14:00:00,7,��쓌,2.1,2.9,51.9,0,0.37,5,���쓌,3.9,4,,
2020/12/9,15:00:00,6,�쓌,1.8,2.3,56,0,0.22,6,�쓌,3.4,16,,
2020/12/9,16:00:00,16,�k,0.5,-2.8,69.9,0,0.05,6,�쓌,2.2,3,,
2020/12/9,17:00:00,13,���k��,1.1,-6.2,81.7,0,0,14,�k��,2.5,31,,
2020/12/9,18:00:00,14,�k��,1.2,-6.1,87.1,0,0,12,��,8.8,58,,
2020/12/9,19:00:00,13,���k��,1,-6,90.2,0,0,13,���k��,3,12,,
2020/12/9,20:00:00,13,���k��,1.9,-6.5,88.3,0,0,13,���k��,2.9,57,,
2020/12/9,21:00:00,12,��,2.7,-8.1,86.6,0,0,12,��,4.9,54,,
2020/12/9,22:00:00,13,���k��,2.5,-7.9,90.1,0,0,13,���k��,3.9,37,,
2020/12/9,23:00:00,13,���k��,1.8,-8.9,88.3,0,0,12,��,4.9,41,,
2020/12/9,0:00:00,12,��,3.1,-10,88.6,0,0,12,��,3.9,57,,
2020/12/10,1:00:00,12,��,3.6,-10.6,88.2,0,0,12,��,4.6,24,,
2020/12/10,2:00:00,14,�k��,1.4,-10,90.8,0,0,12,��,6.1,47,,
2020/12/10,3:00:00,13,���k��,2.6,-9.8,92.6,0,0,13,���k��,4.6,34,,
2020/12/10,4:00:00,13,���k��,2.6,-9.8,92.8,0,0,13,���k��,4.9,51,,
2020/12/10,5:00:00,13,���k��,1.1,-11,93.1,0,0,12,��,5.5,0,,
2020/12/10,6:00:00,13,���k��,2.3,-9.3,93.2,0,0,13,���k��,3.5,39,,
2020/12/10,7:00:00,12,��,2.7,-9.3,91.1,0,0.01,12,��,3.7,41,,
2020/12/10,8:00:00,13,���k��,2.4,-5.2,86,0,0.11,12,��,4.2,40,,
2020/12/10,9:00:00,12,��,0.8,-1.3,76.4,0,0.28,13,���k��,3.8,26,,
2020/12/10,10:00:00,5,���쓌,0.5,5.1,70.2,0,0.4,14,�k��,2.5,28,,
2020/12/10,11:00:00,8,��,3.7,7.6,57.1,0,0.47,7,��쓌,6,59,,
2020/12/10,12:00:00,8,��,3.5,8.5,52.1,0,0.37,10,�쐼,7.6,2,,
2020/12/10,13:00:00,9,��쐼,2.4,8.8,57.1,0,0.25,7,��쓌,5.9,23,,
2020/12/10,14:00:00,9,��쐼,3.6,8.5,58.7,0,0.32,9,��쐼,6.6,28,,
2020/12/10,15:00:00,11,���쐼,3.1,7.1,65.4,0,0.11,8,��,6.1,5,,
2020/12/10,16:00:00,10,�쐼,2.2,5.5,66.8,0,0.03,11,���쐼,5.2,5,,
2020/12/10,17:00:00,13,���k��,1.7,2.3,72.1,0,0,10,�쐼,3.4,0,,
2020/12/10,18:00:00,14,�k��,1.5,2.9,67.8,0,0,14,�k��,2.6,6,,
2020/12/10,19:00:00,13,���k��,1.7,-1.1,79.6,0,0,12,��,2.4,43,,
2020/12/10,20:00:00,13,���k��,1.1,-1.4,88.7,0,0,13,���k��,2.9,44,,
2020/12/10,21:00:00,14,�k��,1.4,-2.7,87.8,0,0,13,���k��,2.9,31,,
2020/12/10,22:00:00,15,�k�k��,1.5,-4.3,88.2,0,0,14,�k��,3.5,41,,
2020/12/10,23:00:00,14,�k��,2.5,-3.3,94.9,0,0,14,�k��,3.2,47,,
2020/12/10,0:00:00,13,���k��,2,-4.4,92.2,0,0,14,�k��,4.3,27,,
2020/12/11,1:00:00,13,���k��,2.2,-5.2,97.9,0,0,14,�k��,3.3,26,,
2020/12/11,2:00:00,14,�k��,0.8,-2.3,99.8,0,0,12,��,3.1,40,,
2020/12/11,3:00:00,10,�쐼,0.7,-6.7,99.3,0,0,12,��,3,45,,
2020/12/11,4:00:00,12,��,1.7,-7.1,97.3,0,0,13,���k��,2.4,57,,
2020/12/11,5:00:00,13,���k��,1.1,-8.8,98.1,0,0,13,���k��,1.6,54,,
2020/12/11,6:00:00,12,��,2.3,-8.8,96.5,0,0,12,��,2.7,53,,
2020/12/11,7:00:00,13,���k��,2.5,-8,96.4,0,0.01,13,���k��,3,12,,
2020/12/11,8:00:00,12,��,2.2,-4.3,99.6,0,0.11,14,�k��,3.1,20,,
2020/12/11,9:00:00,13,���k��,2,-0.2,90.7,0,0.28,13,���k��,3.1,31,,
2020/12/11,10:00:00,12,��,0.9,3.5,69.7,0,0.41,13,���k��,2.8,6,,
2020/12/11,11:00:00,4,��,1.2,5.9,51.3,0,0.48,7,��쓌,2.6,57,,
2020/12/11,12:00:00,7,��쓌,2.5,6.5,51.2,0,0.5,6,�쓌,4.6,59,,
2020/12/11,13:00:00,7,��쓌,2.3,5.9,58.3,0,0.46,8,��,4.8,3,,
2020/12/11,14:00:00,7,��쓌,2.1,5.8,57.1,0,0.35,7,��쓌,4.1,45,,
2020/12/11,15:00:00,4,��,0.8,5.7,64.9,0,0.2,7,��쓌,4.5,1,,
2020/12/11,16:00:00,13,���k��,0.5,0.4,66.4,0,0.04,16,�k,2.3,19,,
2020/12/11,17:00:00,13,���k��,1.5,-3.7,91.8,0,0,13,���k��,1.9,56,,
2020/12/11,18:00:00,12,��,1.9,-4.4,93,0,0,13,���k��,2.8,22,,
2020/12/11,19:00:00,13,���k��,1.1,-4.9,93.2,0,0,14,�k��,4,24,,
2020/12/11,20:00:00,13,���k��,2.5,-4.8,95.5,0,0,12,��,3.5,23,,
2020/12/11,21:00:00,13,���k��,1.2,-6.2,93.2,0,0,13,���k��,2.7,0,,
2020/12/11,22:00:00,13,���k��,2.2,-7,95.9,0,0,13,���k��,3.6,34,,
2020/12/11,23:00:00,13,���k��,2.4,-6.2,95.3,0,0,13,���k��,4.6,50,,
2020/12/11,0:00:00,13,���k��,1.9,-7.1,95.2,0,0,13,���k��,3.8,16,,
2020/12/12,1:00:00,13,���k��,1.3,-6.9,94.2,0,0,13,���k��,3.9,16,,
2020/12/12,2:00:00,13,���k��,2.3,-6.3,95.6,0,0,13,���k��,3.2,50,,
2020/12/12,3:00:00,13,���k��,0.9,-3.9,92.1,0,0,13,���k��,2.7,17,,
2020/12/12,4:00:00,13,���k��,1.7,-3.1,89.8,0,0,13,���k��,3.3,44,,
2020/12/12,5:00:00,13,���k��,1.3,-3.6,88.7,0,0,14,�k��,2.8,11,,
2020/12/12,6:00:00,14,�k��,2.7,-1.7,86.9,0,0,15,�k�k��,6,36,,
2020/12/12,7:00:00,15,�k�k��,2.9,-0.7,85.8,0,0,14,�k��,5.7,17,,
2020/12/12,8:00:00,15,�k�k��,2.2,-0.2,86.6,0,0.03,15,�k�k��,5,1,,
2020/12/12,9:00:00,15,�k�k��,0.8,0.4,92.3,0,0.03,15,�k�k��,4.4,4,,
2020/12/12,10:00:00,12,��,0.9,0.8,91.6,0,0.04,12,��,3.7,41,,
2020/12/12,11:00:00,4.5,��,76.5,0,0.3,,,,,,,,
2020/12/12,12:00:00,2,�k��,2.5,4.8,69,0,0.25,2,�k��,3.9,44,,
2020/12/12,13:00:00,3,���k��,1.2,4.7,67.9,0,0.19,4,��,3.7,5,,
2020/12/12,14:00:00,1,�k�k��,2.2,5,64.3,0,0.19,1,�k�k��,3.4,59,,
2020/12/12,15:00:00,3,���k��,1.7,3.4,71.4,0,0.11,1,�k�k��,4.1,8,,
2020/12/12,16:00:00,3,���k��,2,1.2,80.6,0,0.03,3,���k��,3.9,40,,
2020/12/12,17:00:00,16,�k,1.4,-2.8,86.9,0,0,1,�k�k��,2.6,38,,
2020/12/12,18:00:00,14,�k��,1.3,-3.2,87.2,0,0,14,�k��,2.5,37,,
2020/12/12,19:00:00,15,�k�k��,1.1,-2,86.9,0,0,14,�k��,2.9,12,,
2020/12/12,20:00:00,14,�k��,1.6,-1.8,83.6,0,0,13,���k��,3.3,50,,
2020/12/12,21:00:00,14,�k��,1.9,-1,69,0,0,15,�k�k��,5.3,47,,
2020/12/12,22:00:00,8,��,0.6,-4.9,78.2,0,0,14,�k��,4.4,1,,
2020/12/12,23:00:00,11,���쐼,1,-8.4,91.1,0,0,9,��쐼,2.9,17,,
2020/12/12,0:00:00,14,�k��,2.5,-4.3,83.2,0,0,14,�k��,3.8,59,,
2020/12/13,1:00:00,13,���k��,2.3,-6.5,83.1,0,0,14,�k��,4.9,14,,
2020/12/13,2:00:00,13,���k��,3,-6.3,84.1,0,0,13,���k��,4.7,23,,
2020/12/13,3:00:00,1,�k�k��,0.8,-7.8,81.8,0,0,13,���k��,4.2,34,,
2020/12/13,4:00:00,13,���k��,2.4,-8.5,83.8,0,0,13,���k��,3.7,44,,
2020/12/13,5:00:00,14,�k��,2.9,-8.6,85.3,0,0,14,�k��,4.7,58,,
2020/12/13,6:00:00,14,�k��,2.9,-5.8,78.2,0,0,14,�k��,4.7,1,,
2020/12/13,7:00:00,14,�k��,3,-5.4,74.8,0,0.01,14,�k��,5.2,13,,
2020/12/13,8:00:00,13,���k��,3,-4.3,75.3,0,0.12,14,�k��,5.4,19,,
2020/12/13,9:00:00,13,���k��,4.1,-2,66.1,0,0.2,12,��,5.4,58,,
2020/12/13,10:00:00,15,�k�k��,2.9,-0.1,55.2,0,0.37,14,�k��,6.4,14,,
2020/12/13,11:00:00,12,��,1.7,1.1,50.3,0,0.36,14,�k��,4.6,8,,
2020/12/13,12:00:00,12,��,8.2,2.3,32,0,0.46,12,��,13.2,56,,
2020/12/13,13:00:00,12,��,8.9,1.8,33.7,0,0.45,12,��,15.3,5,,
2020/12/13,14:00:00,12,��,6.8,1.7,30.7,0,0.37,11,���쐼,14.3,17,,
2020/12/13,15:00:00,10,�쐼,6.4,-0.4,40.9,0,0.16,12,��,13,2,,
2020/12/13,16:00:00,12,��,2.3,-3.1,55.4,0,0.03,10,�쐼,9.7,1,,
2020/12/13,17:00:00,15,�k�k��,2.4,-4.3,63.9,0,0,15,�k�k��,3.8,58,,
2020/12/13,18:00:00,14,�k��,2.2,-5.9,69.6,0,0,14,�k��,3.9,47,,
2020/12/13,19:00:00,12,��,2.5,-6.2,73.5,0,0,12,��,3.8,44,,
2020/12/13,20:00:00,13,���k��,1.3,-9.1,92.4,0,0,15,�k�k��,2.5,9,,
2020/12/13,21:00:00,11,���쐼,2.2,-11.7,89.6,0,0,12,��,3.2,42,,
2020/12/13,22:00:00,13,���k��,2.4,-9.1,85.7,0,0,13,���k��,3.4,29,,
2020/12/13,23:00:00,14,�k��,2.4,-7.4,78,0,0,14,�k��,3.5,58,,
2020/12/13,0:00:00,11,���쐼,1.4,-9.1,82.7,0,0,14,�k��,3.2,5,,
2020/12/14,1:00:00,16,�k,0.6,-7.7,75.8,0,0,16,�k,3.2,39,,
2020/12/14,2:00:00,12,��,1.1,-7.5,82,0,0,12,��,2,51,,
2020/12/14,3:00:00,14,�k��,2,-6,67.5,0,0,14,�k��,2.9,50,,
2020/12/14,4:00:00,14,�k��,1.7,-7.3,80.8,0,0,12,��,2.4,39,,
2020/12/14,5:00:00,13,���k��,1.6,-6.9,74.9,0,0,13,���k��,2.8,53,,
2020/12/14,6:00:00,16,�k,1.4,-7.5,80.6,0,0,16,�k,1.9,58,,
2020/12/14,7:00:00,14,�k��,1.1,-8.8,79.2,0,0.01,14,�k��,2.3,43,,
2020/12/14,8:00:00,13,���k��,1.6,-6.9,77.8,0,0.05,13,���k��,2.6,58,,
2020/12/14,9:00:00,14,�k��,1.2,-3.5,61,0,0.25,12,��,2.5,49,,
2020/12/14,10:00:00,12,��,0.6,-1.4,50.6,0,0.35,11,���쐼,2.4,38,,
2020/12/14,11:00:00,13,���k��,1.1,0.4,39.2,0,0.47,12,��,3.9,47,,
2020/12/14,12:00:00,13,���k��,5,0.8,28.4,0,0.52,13,���k��,9.5,48,,
2020/12/14,13:00:00,14,�k��,3.7,0.6,26.5,0,0.48,12,��,8.9,6,,
2020/12/14,14:00:00,14,�k��,3.9,0.3,29.6,0,0.32,13,���k��,10.1,18,,
2020/12/14,15:00:00,14,�k��,3.6,-1.3,40.7,0,0.24,14,�k��,7.9,7,,
2020/12/14,16:00:00,13,���k��,2.7,-4.9,51.5,0,0.05,13,���k��,5.9,29,,
2020/12/14,17:00:00,13,���k��,1.7,-5.7,57.7,0,0,13,���k��,5,3,,
2020/12/14,18:00:00,12,��,1.5,-7.9,73.1,0,0,12,��,3.2,14,,
2020/12/14,19:00:00,10,�쐼,0.6,-12.3,73.2,0,0,10,�쐼,4.7,50,,
2020/12/14,20:00:00,12,��,1.5,-8.5,66.6,0,0,11,���쐼,3.8,36,,
2020/12/14,21:00:00,12,��,2.6,-7.5,59.5,0,0,12,��,4.7,43,,
2020/12/14,22:00:00,13,���k��,3,-9.5,61.3,0,0,13,���k��,4.1,55,,
2020/12/14,23:00:00,12,��,4.2,-8.4,54.9,0,0,12,��,5.9,50,,
2020/12/14,0:00:00,12,��,2.5,-10.6,60.5,0,0,13,���k��,4.5,1,,
2020/12/15,1:00:00,12,��,3.4,-8.4,53.9,0,0,13,���k��,5.2,37,,
2020/12/15,2:00:00,12,��,3.6,-7.6,49.5,0,0,13,���k��,6.7,7,,
2020/12/15,3:00:00,12,��,3.3,-8,49,0,0,12,��,6.2,6,,
2020/12/15,4:00:00,10,�쐼,1.1,-13.3,61.2,0,0,12,��,5.1,4,,
2020/12/15,5:00:00,7,��쓌,1,-14.5,69.2,0,0,10,�쐼,1.9,6,,
2020/12/15,6:00:00,5,���쓌,0.3,-14,66.9,0,0,6,�쓌,3,14,,
2020/12/15,7:00:00,10,�쐼,2.4,-16.1,78.9,0,0.01,9,��쐼,3.9,2,,
2020/12/15,8:00:00,13,���k��,1.8,-9.9,72.2,0,0.1,1,�k�k��,4.3,8,,
2020/12/15,9:00:00,1,�k�k��,2.9,-3.7,41.6,0,0.29,1,�k�k��,4.9,57,,
2020/12/15,10:00:00,12,��,7.1,-2.6,25.5,0,0.42,13,���k��,11.5,55,,
2020/12/15,11:00:00,12,��,6.4,-1.4,20.7,0,0.5,12,��,10.3,0,,
2020/12/15,12:00:00,12,��,7.7,-1.5,18.1,0,0.52,11,���쐼,12.1,49,,
2020/12/15,13:00:00,12,��,7.8,-1.8,18.7,0,0.48,12,��,12.5,33,,
2020/12/15,14:00:00,13,���k��,6.5,-2.1,21.2,0,0.39,13,���k��,12.7,13,,
2020/12/15,15:00:00,12,��,7,-3.6,29.2,0,0.16,13,���k��,10.6,51,,
2020/12/15,16:00:00,13,���k��,3,-5.7,39.6,0,0.02,12,��,10.9,2,,
2020/12/15,17:00:00,12,��,2.9,-8.2,47.6,0,0,12,��,5.1,40,,
2020/12/15,18:00:00,12,��,2.3,-8.3,48.1,0,0,12,��,4.1,11,,
2020/12/15,19:00:00,14,�k��,1.4,-8.6,43.4,0,0,12,��,3.4,23,,
2020/12/15,20:00:00,13,���k��,2.4,-10,53.8,0,0,13,���k��,3.8,0,,
2020/12/15,21:00:00,13,���k��,1.8,-10.6,62.8,0,0,12,��,3,19,,
2020/12/15,22:00:00,13,���k��,1.1,-15.6,74,0,0,12,��,2.6,11,,
2020/12/15,23:00:00,16,�k,0.3,-15.3,75.6,0,0,12,��,2.7,39,,
2020/12/15,0:00:00,13,���k��,1.6,-16.7,84,0,0,13,���k��,3.2,44,,
2020/12/16,1:00:00,12,��,1.1,-16.7,78.1,0,0,12,��,9.6,46,,
2020/12/16,2:00:00,14,�k��,0.9,-16.7,85,0,0,13,���k��,3.1,15,,
2020/12/16,3:00:00,12,��,2,-17.1,84.3,0,0,13,���k��,3.3,33,,
2020/12/16,4:00:00,14,�k��,2.7,-15.1,82.8,0,0,14,�k��,3.7,46,,
2020/12/16,5:00:00,13,���k��,1.7,-16.3,83.4,0,0,13,���k��,3.4,36,,
2020/12/16,6:00:00,12,��,1.9,-15.2,85.6,0,0,12,��,2.9,0,,
2020/12/16,7:00:00,12,��,2.1,-15,83.8,0,0.01,12,��,3.9,30,,
2020/12/16,8:00:00,12,��,1.4,-11,77.4,0,0.12,3,���k��,7.4,35,,
2020/12/16,9:00:00,11,���쐼,0.7,-4.2,59,0,0.3,12,��,2.7,10,,
2020/12/16,10:00:00,14,�k��,1.2,-1.1,38.2,0,0.39,12,��,4,34,,
2020/12/16,11:00:00,14,�k��,1.4,-0.5,30,0,0.49,1,�k�k��,3.8,27,,
2020/12/16,12:00:00,15,�k�k��,2.5,0.8,25.8,0,0.52,16,�k,5.3,49,,
2020/12/16,13:00:00,15,�k�k��,3.7,0.8,23.9,0,0.49,15,�k�k��,7.3,59,,
2020/12/16,14:00:00,13,���k��,4.3,-0.2,27.1,0,0.38,13,���k��,9.2,39,,
2020/12/16,15:00:00,13,���k��,4.7,-1.6,30.8,0,0.22,13,���k��,10.1,24,,
2020/12/16,16:00:00,12,��,2.5,-4.3,43.4,0,0.05,13,���k��,5.6,17,,
2020/12/16,17:00:00,12,��,2.2,-4.8,50.1,0,0,12,��,3.8,45,,
2020/12/16,18:00:00,13,���k��,0.7,-8.6,57.3,0,0,12,��,2.8,3,,